Location: Unspecified
(48.8656°N, 0.0000°E)
Time: 03:54:33
(UTC+00:00)

Tiros 1 - Visible Passes

Search period start: 20 June 2019 00:00
Search period end: 30 June 2019 00:00
Orbit: 631 x 664 km, 48.4° (Epoch: 19 June)

Date Brightness Start Highest point End Pass type
(mag) Time Alt. Az. Time Alt. Az. Time Alt. Az.
20 Jun 7.8 00:19:06 33° SSE 00:19:32 33° SSE 00:23:42 10° E visible
20 Jun 7.0 01:56:43 10° WSW 02:01:23 76° SSE 02:06:02 10° E visible
20 Jun 9.0 23:05:37 15° ESE 23:05:37 15° ESE 23:07:01 10° E visible
21 Jun 7.2 00:43:13 28° SW 00:45:24 53° SSE 00:49:56 10° E visible
21 Jun 7.1 02:22:48 10° W 02:27:29 86° S 02:32:08 10° E visible
21 Jun 7.8 23:29:32 32° SSE 23:29:34 32° SSE 23:33:42 10° E visible
22 Jun 7.0 01:07:07 12° WSW 01:11:24 74° SSE 01:16:03 10° E visible
22 Jun 7.1 02:48:55 10° W 02:53:36 82° S 02:58:14 10° E visible
22 Jun 8.9 22:15:29 15° ESE 22:15:29 15° ESE 22:16:56 10° E visible
22 Jun 7.2 23:53:02 26° SW 23:55:26 51° SSE 23:59:57 10° E visible
23 Jun 7.0 01:32:48 10° W 01:37:30 86° S 01:42:09 10° E visible
23 Jun 7.9 22:37:56 24° S 22:39:37 30° SSE 22:43:41 10° E visible
24 Jun 7.0 00:16:44 10° WSW 00:21:25 72° SSE 00:26:03 10° E visible
24 Jun 7.0 01:58:55 10° W 02:03:36 83° S 02:08:15 10° E visible
24 Jun 8.6 21:21:10 10° S 21:23:59 16° SE 21:26:50 10° E visible
24 Jun 7.3 23:00:55 10° SW 23:05:27 49° SSE 23:09:58 10° E visible
25 Jun 7.0 00:42:48 10° W 00:47:31 85° S 00:52:10 10° E visible
25 Jun 7.1 02:25:02 10° W 02:29:40 67° SSW 02:34:16 10° ESE visible
25 Jun 7.9 21:45:37 10° SSW 21:49:39 29° SSE 21:53:41 10° E visible
25 Jun 7.0 23:26:45 10° WSW 23:31:26 71° SSE 23:36:05 10° E visible
26 Jun 7.0 01:08:55 10° W 01:13:37 84° S 01:18:17 10° E visible
26 Jun 7.4 02:51:11 10° W 02:55:38 46° SSW 03:00:03 10° SE visible
26 Jun 7.3 22:10:58 10° SW 22:15:29 47° SSE 22:19:59 10° E visible
26 Jun 7.0 23:52:48 10° W 23:57:31 84° S 00:02:11 10° E visible
27 Jun 7.0 01:35:02 10° W 01:39:42 70° SSW 01:44:18 10° ESE visible
27 Jun 8.0 03:17:30 10° W 03:21:26 28° SW 03:25:21 10° SSE visible
27 Jun 8.0 20:55:43 10° SSW 20:59:42 27° SE 21:03:39 10° E visible
27 Jun 7.0 22:36:45 10° WSW 22:41:27 69° SSE 22:46:06 10° E visible
28 Jun 7.0 00:18:55 10° W 00:23:37 85° S 00:28:18 10° E visible
28 Jun 7.3 02:01:10 10° W 02:05:40 48° SSW 02:10:07 10° SE visible
28 Jun 7.4 21:21:00 10° SW 21:25:31 45° SSE 21:29:59 10° E visible
28 Jun 7.0 23:02:48 10° W 23:07:32 84° S 23:12:13 10° E visible
29 Jun 7.0 00:45:02 10° W 00:49:43 72° SSW 00:54:20 10° ESE visible
29 Jun 7.9 02:27:27 10° W 02:31:30 29° SSW 02:35:29 10° SSE visible
29 Jun 7.1 21:46:46 10° WSW 21:51:28 66° SSE 21:56:07 10° E visible
29 Jun 7.0 23:28:54 10° W 23:33:38 85° S 23:38:19 10° E visible
